Location: Stara Lesna
(49.1528°N, 20.2911°E)
Time: 09:50:25
(UTC+02:00)

Cosmos 1802 Rocket - Pass Details

Date: 13 July 2020
Orbit: 954 x 1011 km, 82.9° (Epoch: 05 August)

Event Time Altitude Azimuth Distance (km) Brightness Sun altitude
Exits shadow 02:35:24 20° 192° (SSW) 2,128 5.2 -14.9°
Maximum altitude 02:40:02 83° 279° (W) 1,021 4.1 -14.6°
Drops below altitude 10° 02:46:31 10° 8° (N) 2,804 7.6 -14.1°
Sets 02:49:04 0° 10° (N) 3,759 8.5 -13.8°
